owner,sensor,date,latitude,longitude,vertical_datum,sea_water_temperature,qcFlag 
DISL,ioos:station:DISL:MBLA:1,2011-02-01T00:02:00Z,30.4367,-88.0117,0.5,12.51,2 
DISL,ioos:station:DISL:MBLA:1,2011-02-01T00:05:00Z,30.4367,-88.0117,0.5,12.07,2 
DISL,ioos:station:DISL:MBLA:1,2011-02-01T00:07:00Z,30.4367,-88.0117,0.5,12.01,2 
DISL,ioos:station:DISL:MBLA:1,2011-02-01T00:10:00Z,30.4367,-88.0117,0.5,12.25,2 
DISL,ioos:station:DISL:MBLA:1,2011-02-01T00:12:00Z,30.4367,-88.0117,0.5,12.86,2 
DISL,ioos:station:DISL:MBLA:1,2011-02-01T00:15:00Z,30.4367,-88.0117,0.5,12.66,2 
DISL,ioos:station:DISL:MBLA:1,2011-02-01T01:03:00Z,30.4367,-88.0117,0.5,12.65,2 
DISL,ioos:station:DISL:MBLA:1,2011-02-01T01:05:00Z,30.4367,-88.0117,0.5,12.31,2 
DISL,ioos:station:DISL:MBLA:1,2011-02-01T01:07:00Z,30.4367,-88.0117,0.5,12.41,2 
DISL,ioos:station:DISL:MBLA:1,2011-02-01T01:10:00Z,30.4367,-88.0117,0.5,12.71,2 
DISL,ioos:station:DISL:MBLA:1,2011-02-01T01:12:00Z,30.4367,-88.0117,0.5,12.6,2 
DISL,ioos:station:DISL:MBLA:1,2011-02-01T01:15:00Z,30.4367,-88.0117,0.5,12.65,2 
DISL,ioos:station:DISL:MBLA:1,2011-02-01T02:02:00Z,30.4367,-88.0117,0.5,12.56,2 
DISL,ioos:station:DISL:MBLA:1,2011-02-01T02:05:00Z,30.4367,-88.0117,0.5,12.37,2 
DISL,ioos:station:DISL:MBLA:1,2011-02-01T02:07:00Z,30.4367,-88.0117,0.5,12.42,2 
DISL,ioos:station:DISL:MBLA:1,2011-02-01T02:10:00Z,30.4367,-88.0117,0.5,12.59,2 
DISL,ioos:station:DISL:MBLA:1,2011-02-01T02:12:00Z,30.4367,-88.0117,0.5,12.69,2 
DISL,ioos:station:DISL:MBLA:1,2011-02-01T02:15:00Z,30.4367,-88.0117,0.5,12.92,2 
DISL,ioos:station:DISL:MBLA:1,2011-02-01T03:03:00Z,30.4367,-88.0117,0.5,12.68,2 
DISL,ioos:station:DISL:MBLA:1,2011-02-01T03:05:00Z,30.4367,-88.0117,0.5,12.37,2 
DISL,ioos:station:DISL:MBLA:1,2011-02-01T03:07:00Z,30.4367,-88.0117,0.5,12.6,2 
DISL,ioos:station:DISL:MBLA:1,2011-02-01T03:10:00Z,30.4367,-88.0117,0.5,12.67,2 
DISL,ioos:station:DISL:MBLA:1,2011-02-01T03:12:00Z,30.4367,-88.0117,0.5,12.76,2 
DISL,ioos:station:DISL:MBLA:1,2011-02-01T03:15:00Z,30.4367,-88.0117,0.5,12.76,2 
DISL,ioos:station:DISL:MBLA:1,2011-02-01T04:03:00Z,30.4367,-88.0117,0.5,12.72,2 
DISL,ioos:station:DISL:MBLA:1,2011-02-01T04:05:00Z,30.4367,-88.0117,0.5,12.45,2 
DISL,ioos:station:DISL:MBLA:1,2011-02-01T04:07:00Z,30.4367,-88.0117,0.5,12.55,2 
DISL,ioos:station:DISL:MBLA:1,2011-02-01T04:10:00Z,30.4367,-88.0117,0.5,12.69,2 
DISL,ioos:station:DISL:MBLA:1,2011-02-01T04:12:00Z,30.4367,-88.0117,0.5,12.71,2 
DISL,ioos:station:DISL:MBLA:1,2011-02-01T04:15:00Z,30.4367,-88.0117,0.5,12.71,2 
DISL,ioos:station:DISL:MBLA:1,2011-02-01T05:03:00Z,30.4367,-88.0117,0.5,12.7,2 
DISL,ioos:station:DISL:MBLA:1,2011-02-01T05:05:00Z,30.4367,-88.0117,0.5,12.61,2 
DISL,ioos:station:DISL:MBLA:1,2011-02-01T05:07:00Z,30.4367,-88.0117,0.5,12.64,2 
DISL,ioos:station:DISL:MBLA:1,2011-02-01T05:10:00Z,30.4367,-88.0117,0.5,12.68,2 
DISL,ioos:station:DISL:MBLA:1,2011-02-01T05:12:00Z,30.4367,-88.0117,0.5,12.69,2 
DISL,ioos:station:DISL:MBLA:1,2011-02-01T05:15:00Z,30.4367,-88.0117,0.5,12.69,2 
DISL,ioos:station:DISL:MBLA:1,2011-02-01T06:03:00Z,30.4367,-88.0117,0.5,12.73,2 
DISL,ioos:station:DISL:MBLA:1,2011-02-01T06:05:00Z,30.4367,-88.0117,0.5,12.56,2 
DISL,ioos:station:DISL:MBLA:1,2011-02-01T06:07:00Z,30.4367,-88.0117,0.5,12.69,2 
DISL,ioos:station:DISL:MBLA:1,2011-02-01T06:10:00Z,30.4367,-88.0117,0.5,12.69,2 
DISL,ioos:station:DISL:MBLA:1,2011-02-01T06:12:00Z,30.4367,-88.0117,0.5,12.69,2 
DISL,ioos:station:DISL:MBLA:1,2011-02-01T06:15:00Z,30.4367,-88.0117,0.5,12.7,2 
DISL,ioos:station:DISL:MBLA:1,2011-02-01T07:03:00Z,30.4367,-88.0117,0.5,12.74,2 
DISL,ioos:station:DISL:MBLA:1,2011-02-01T07:05:00Z,30.4367,-88.0117,0.5,12.74,2 
DISL,ioos:station:DISL:MBLA:1,2011-02-01T07:07:00Z,30.4367,-88.0117,0.5,12.8,2 
DISL,ioos:station:DISL:MBLA:1,2011-02-01T07:10:00Z,30.4367,-88.0117,0.5,12.82,2 
DISL,ioos:station:DISL:MBLA:1,2011-02-01T07:12:00Z,30.4367,-88.0117,0.5,12.8,2 
DISL,ioos:station:DISL:MBLA:1,2011-02-01T07:15:00Z,30.4367,-88.0117,0.5,12.79,2 
DISL,ioos:station:DISL:MBLA:1,2011-02-01T08:03:00Z,30.4367,-88.0117,0.5,12.62,2 
DISL,ioos:station:DISL:MBLA:1,2011-02-01T08:05:00Z,30.4367,-88.0117,0.5,12.33,2 
DISL,ioos:station:DISL:MBLA:1,2011-02-01T08:07:00Z,30.4367,-88.0117,0.5,12.18,2 
DISL,ioos:station:DISL:MBLA:1,2011-02-01T08:10:00Z,30.4367,-88.0117,0.5,12.29,2 
DISL,ioos:station:DISL:MBLA:1,2011-02-01T08:12:00Z,30.4367,-88.0117,0.5,12.38,2 
DISL,ioos:station:DISL:MBLA:1,2011-02-01T08:15:00Z,30.4367,-88.0117,0.5,12.4,2 
DISL,ioos:station:DISL:MBLA:1,2011-02-01T16:03:00Z,30.4367,-88.0117,0.5,12.51,2 
DISL,ioos:station:DISL:MBLA:1,2011-02-01T16:05:00Z,30.4367,-88.0117,0.5,12.15,2 
DISL,ioos:station:DISL:MBLA:1,2011-02-01T16:08:00Z,30.4367,-88.0117,0.5,12.19,2 
DISL,ioos:station:DISL:MBLA:1,2011-02-01T16:10:00Z,30.4367,-88.0117,0.5,12.37,2 
DISL,ioos:station:DISL:MBLA:1,2011-02-01T16:13:00Z,30.4367,-88.0117,0.5,12.55,2 
DISL,ioos:station:DISL:MBLA:1,2011-02-01T16:15:00Z,30.4367,-88.0117,0.5,12.55,2 
DISL,ioos:station:DISL:MBLA:1,2011-02-01T17:03:00Z,30.4367,-88.0117,0.5,12.26,2 
DISL,ioos:station:DISL:MBLA:1,2011-02-01T17:05:00Z,30.4367,-88.0117,0.5,12.35,2 
DISL,ioos:station:DISL:MBLA:1,2011-02-01T17:07:00Z,30.4367,-88.0117,0.5,12.48,2 
DISL,ioos:station:DISL:MBLA:1,2011-02-01T17:10:00Z,30.4367,-88.0117,0.5,12.53,2 
DISL,ioos:station:DISL:MBLA:1,2011-02-01T17:12:00Z,30.4367,-88.0117,0.5,12.52,2 
DISL,ioos:station:DISL:MBLA:1,2011-02-01T17:15:00Z,30.4367,-88.0117,0.5,12.53,2 
DISL,ioos:station:DISL:MBLA:1,2011-02-01T18:03:00Z,30.4367,-88.0117,0.5,12.47,2 
DISL,ioos:station:DISL:MBLA:1,2011-02-01T18:05:00Z,30.4367,-88.0117,0.5,12.34,2 
DISL,ioos:station:DISL:MBLA:1,2011-02-01T18:07:00Z,30.4367,-88.0117,0.5,12.44,2 
DISL,ioos:station:DISL:MBLA:1,2011-02-01T18:10:00Z,30.4367,-88.0117,0.5,12.47,2 
DISL,ioos:station:DISL:MBLA:1,2011-02-01T18:12:00Z,30.4367,-88.0117,0.5,12.47,2 
DISL,ioos:station:DISL:MBLA:1,2011-02-01T18:15:00Z,30.4367,-88.0117,0.5,12.47,2 
DISL,ioos:station:DISL:MBLA:1,2011-02-01T19:02:00Z,30.4367,-88.0117,0.5,12.65,2 
DISL,ioos:station:DISL:MBLA:1,2011-02-01T19:05:00Z,30.4367,-88.0117,0.5,12.63,2 
DISL,ioos:station:DISL:MBLA:1,2011-02-01T19:07:00Z,30.4367,-88.0117,0.5,12.6,2 
DISL,ioos:station:DISL:MBLA:1,2011-02-01T19:10:00Z,30.4367,-88.0117,0.5,12.61,2 
DISL,ioos:station:DISL:MBLA:1,2011-02-01T19:12:00Z,30.4367,-88.0117,0.5,12.64,2 
DISL,ioos:station:DISL:MBLA:1,2011-02-01T19:15:00Z,30.4367,-88.0117,0.5,12.68,2 
DISL,ioos:station:DISL:MBLA:1,2011-02-01T20:03:00Z,30.4367,-88.0117,0.5,12.8,2 
DISL,ioos:station:DISL:MBLA:1,2011-02-01T20:05:00Z,30.4367,-88.0117,0.5,12.79,2 
DISL,ioos:station:DISL:MBLA:1,2011-02-01T20:07:00Z,30.4367,-88.0117,0.5,12.76,2 
DISL,ioos:station:DISL:MBLA:1,2011-02-01T20:10:00Z,30.4367,-88.0117,0.5,12.74,2 
DISL,ioos:station:DISL:MBLA:1,2011-02-01T20:13:00Z,30.4367,-88.0117,0.5,12.72,2 
DISL,ioos:station:DISL:MBLA:1,2011-02-01T20:15:00Z,30.4367,-88.0117,0.5,12.73,2 
DISL,ioos:station:DISL:MBLA:1,2011-02-01T21:03:00Z,30.4367,-88.0117,0.5,12.87,2 
DISL,ioos:station:DISL:MBLA:1,2011-02-01T21:05:00Z,30.4367,-88.0117,0.5,12.91,2 
DISL,ioos:station:DISL:MBLA:1,2011-02-01T21:08:00Z,30.4367,-88.0117,0.5,12.9,2 
DISL,ioos:station:DISL:MBLA:1,2011-02-01T21:11:00Z,30.4367,-88.0117,0.5,12.9,2 
DISL,ioos:station:DISL:MBLA:1,2011-02-01T21:14:00Z,30.4367,-88.0117,0.5,12.96,2 
DISL,ioos:station:DISL:MBLA:1,2011-02-01T21:17:00Z,30.4367,-88.0117,0.5,13.0,2 
DISL,ioos:station:DISL:MBLA:1,2011-02-01T22:03:00Z,30.4367,-88.0117,0.5,13.13,2 
DISL,ioos:station:DISL:MBLA:1,2011-02-01T22:05:00Z,30.4367,-88.0117,0.5,13.14,2 
DISL,ioos:station:DISL:MBLA:1,2011-02-01T22:08:00Z,30.4367,-88.0117,0.5,13.14,2 
DISL,ioos:station:DISL:MBLA:1,2011-02-01T22:10:00Z,30.4367,-88.0117,0.5,13.15,2 
DISL,ioos:station:DISL:MBLA:1,2011-02-01T22:12:00Z,30.4367,-88.0117,0.5,13.14,2 
DISL,ioos:station:DISL:MBLA:1,2011-02-01T22:15:00Z,30.4367,-88.0117,0.5,13.15,2 
DISL,ioos:station:DISL:MBLA:1,2011-02-01T23:02:00Z,30.4367,-88.0117,0.5,13.2,2 
DISL,ioos:station:DISL:MBLA:1,2011-02-01T23:05:00Z,30.4367,-88.0117,0.5,13.2,2 
DISL,ioos:station:DISL:MBLA:1,2011-02-01T23:08:00Z,30.4367,-88.0117,0.5,13.21,2 
DISL,ioos:station:DISL:MBLA:1,2011-02-01T23:10:00Z,30.4367,-88.0117,0.5,13.21,2 
DISL,ioos:station:DISL:MBLA:1,2011-02-01T23:13:00Z,30.4367,-88.0117,0.5,13.21,2 
DISL,ioos:station:DISL:MBLA:1,2011-02-01T23:16:00Z,30.4367,-88.0117,0.5,13.21,2 
DISL,ioos:station:DISL:MBLA:1,2011-02-02T00:02:00Z,30.4367,-88.0117,0.5,13.23,2 
DISL,ioos:station:DISL:MBLA:1,2011-02-02T00:05:00Z,30.4367,-88.0117,0.5,13.23,2 
DISL,ioos:station:DISL:MBLA:1,2011-02-02T00:08:00Z,30.4367,-88.0117,0.5,13.22,2 
DISL,ioos:station:DISL:MBLA:1,2011-02-02T00:10:00Z,30.4367,-88.0117,0.5,13.22,2 
DISL,ioos:station:DISL:MBLA:1,2011-02-02T00:13:00Z,30.4367,-88.0117,0.5,13.22,2 
DISL,ioos:station:DISL:MBLA:1,2011-02-02T00:16:00Z,30.4367,-88.0117,0.5,13.22,2 
DISL,ioos:station:DISL:MBLA:1,2011-02-02T01:03:00Z,30.4367,-88.0117,0.5,13.25,2 
DISL,ioos:station:DISL:MBLA:1,2011-02-02T01:05:00Z,30.4367,-88.0117,0.5,13.26,2 
DISL,ioos:station:DISL:MBLA:1,2011-02-02T01:07:00Z,30.4367,-88.0117,0.5,13.26,2 
DISL,ioos:station:DISL:MBLA:1,2011-02-02T01:10:00Z,30.4367,-88.0117,0.5,13.26,2 
DISL,ioos:station:DISL:MBLA:1,2011-02-02T01:13:00Z,30.4367,-88.0117,0.5,13.25,2 
DISL,ioos:station:DISL:MBLA:1,2011-02-02T01:15:00Z,30.4367,-88.0117,0.5,13.24,2 
DISL,ioos:station:DISL:MBLA:1,2011-02-02T15:03:00Z,30.4367,-88.0117,0.5,12.38,2 
DISL,ioos:station:DISL:MBLA:1,2011-02-02T15:05:00Z,30.4367,-88.0117,0.5,12.24,2 
DISL,ioos:station:DISL:MBLA:1,2011-02-02T15:08:00Z,30.4367,-88.0117,0.5,12.2,2 
DISL,ioos:station:DISL:MBLA:1,2011-02-02T15:11:00Z,30.4367,-88.0117,0.5,12.15,2 
DISL,ioos:station:DISL:MBLA:1,2011-02-02T15:14:00Z,30.4367,-88.0117,0.5,12.16,2 
DISL,ioos:station:DISL:MBLA:1,2011-02-02T15:16:00Z,30.4367,-88.0117,0.5,12.09,2 
DISL,ioos:station:DISL:MBLA:1,2011-02-02T16:03:00Z,30.4367,-88.0117,0.5,12.34,2 
DISL,ioos:station:DISL:MBLA:1,2011-02-02T16:05:00Z,30.4367,-88.0117,0.5,12.36,2 
DISL,ioos:station:DISL:MBLA:1,2011-02-02T16:07:00Z,30.4367,-88.0117,0.5,12.24,2 
DISL,ioos:station:DISL:MBLA:1,2011-02-02T16:10:00Z,30.4367,-88.0117,0.5,12.22,2 
DISL,ioos:station:DISL:MBLA:1,2011-02-02T16:12:00Z,30.4367,-88.0117,0.5,12.19,2 
DISL,ioos:station:DISL:MBLA:1,2011-02-02T16:15:00Z,30.4367,-88.0117,0.5,12.16,2 
DISL,ioos:station:DISL:MBLA:1,2011-02-02T17:03:00Z,30.4367,-88.0117,0.5,12.39,2 
DISL,ioos:station:DISL:MBLA:1,2011-02-02T17:05:00Z,30.4367,-88.0117,0.5,12.35,2 
DISL,ioos:station:DISL:MBLA:1,2011-02-02T17:08:00Z,30.4367,-88.0117,0.5,12.23,2 
DISL,ioos:station:DISL:MBLA:1,2011-02-02T17:10:00Z,30.4367,-88.0117,0.5,12.13,2 
DISL,ioos:station:DISL:MBLA:1,2011-02-02T17:13:00Z,30.4367,-88.0117,0.5,12.12,2 
DISL,ioos:station:DISL:MBLA:1,2011-02-02T17:16:00Z,30.4367,-88.0117,0.5,12.1,2 
DISL,ioos:station:DISL:MBLA:1,2011-02-02T18:03:00Z,30.4367,-88.0117,0.5,12.36,2 
DISL,ioos:station:DISL:MBLA:1,2011-02-02T18:05:00Z,30.4367,-88.0117,0.5,12.27,2 
DISL,ioos:station:DISL:MBLA:1,2011-02-02T18:07:00Z,30.4367,-88.0117,0.5,12.16,2 
DISL,ioos:station:DISL:MBLA:1,2011-02-02T18:10:00Z,30.4367,-88.0117,0.5,12.1,2 
DISL,ioos:station:DISL:MBLA:1,2011-02-02T18:13:00Z,30.4367,-88.0117,0.5,12.07,2 
DISL,ioos:station:DISL:MBLA:1,2011-02-02T18:15:00Z,30.4367,-88.0117,0.5,12.06,2 
DISL,ioos:station:DISL:MBLA:1,2011-02-02T19:03:00Z,30.4367,-88.0117,0.5,12.21,2 
DISL,ioos:station:DISL:MBLA:1,2011-02-02T19:05:00Z,30.4367,-88.0117,0.5,12.07,2 
DISL,ioos:station:DISL:MBLA:1,2011-02-02T19:08:00Z,30.4367,-88.0117,0.5,12.02,2 
DISL,ioos:station:DISL:MBLA:1,2011-02-02T19:10:00Z,30.4367,-88.0117,0.5,12.03,2 
DISL,ioos:station:DISL:MBLA:1,2011-02-02T19:13:00Z,30.4367,-88.0117,0.5,12.02,2 
DISL,ioos:station:DISL:MBLA:1,2011-02-02T19:16:00Z,30.4367,-88.0117,0.5,12.0,2 
DISL,ioos:station:DISL:MBLA:1,2011-02-02T20:03:00Z,30.4367,-88.0117,0.5,12.01,2 
DISL,ioos:station:DISL:MBLA:1,2011-02-02T20:05:00Z,30.4367,-88.0117,0.5,11.93,2 
DISL,ioos:station:DISL:MBLA:1,2011-02-02T20:08:00Z,30.4367,-88.0117,0.5,11.89,2 
DISL,ioos:station:DISL:MBLA:1,2011-02-02T20:10:00Z,30.4367,-88.0117,0.5,11.84,2 
DISL,ioos:station:DISL:MBLA:1,2011-02-02T20:12:00Z,30.4367,-88.0117,0.5,11.82,2 
DISL,ioos:station:DISL:MBLA:1,2011-02-02T20:15:00Z,30.4367,-88.0117,0.5,11.81,2 
DISL,ioos:station:DISL:MBLA:1,2011-02-02T21:03:00Z,30.4367,-88.0117,0.5,11.96,2 
DISL,ioos:station:DISL:MBLA:1,2011-02-02T21:05:00Z,30.4367,-88.0117,0.5,11.8,2 
DISL,ioos:station:DISL:MBLA:1,2011-02-02T21:08:00Z,30.4367,-88.0117,0.5,11.76,2 
DISL,ioos:station:DISL:MBLA:1,2011-02-02T21:10:00Z,30.4367,-88.0117,0.5,11.74,2 
DISL,ioos:station:DISL:MBLA:1,2011-02-02T21:13:00Z,30.4367,-88.0117,0.5,11.74,2 
DISL,ioos:station:DISL:MBLA:1,2011-02-02T21:16:00Z,30.4367,-88.0117,0.5,11.72,2 
DISL,ioos:station:DISL:MBLA:1,2011-02-02T22:03:00Z,30.4367,-88.0117,0.5,11.97,2 
DISL,ioos:station:DISL:MBLA:1,2011-02-02T22:05:00Z,30.4367,-88.0117,0.5,11.71,2 
DISL,ioos:station:DISL:MBLA:1,2011-02-02T22:08:00Z,30.4367,-88.0117,0.5,11.64,2 
DISL,ioos:station:DISL:MBLA:1,2011-02-02T22:11:00Z,30.4367,-88.0117,0.5,11.59,2 
DISL,ioos:station:DISL:MBLA:1,2011-02-02T22:13:00Z,30.4367,-88.0117,0.5,11.58,2 
DISL,ioos:station:DISL:MBLA:1,2011-02-02T22:16:00Z,30.4367,-88.0117,0.5,11.57,2 
DISL,ioos:station:DISL:MBLA:1,2011-02-02T23:03:00Z,30.4367,-88.0117,0.5,11.82,2 
DISL,ioos:station:DISL:MBLA:1,2011-02-02T23:05:00Z,30.4367,-88.0117,0.5,11.56,2 
DISL,ioos:station:DISL:MBLA:1,2011-02-02T23:08:00Z,30.4367,-88.0117,0.5,11.55,2 
DISL,ioos:station:DISL:MBLA:1,2011-02-02T23:10:00Z,30.4367,-88.0117,0.5,11.51,2 
DISL,ioos:station:DISL:MBLA:1,2011-02-02T23:13:00Z,30.4367,-88.0117,0.5,11.49,2 
DISL,ioos:station:DISL:MBLA:1,2011-02-02T23:15:00Z,30.4367,-88.0117,0.5,11.46,2 
DISL,ioos:station:DISL:MBLA:1,2011-02-03T00:03:00Z,30.4367,-88.0117,0.5,11.89,2 
DISL,ioos:station:DISL:MBLA:1,2011-02-03T00:05:00Z,30.4367,-88.0117,0.5,11.61,2 
DISL,ioos:station:DISL:MBLA:1,2011-02-03T00:08:00Z,30.4367,-88.0117,0.5,11.54,2 
DISL,ioos:station:DISL:MBLA:1,2011-02-03T00:10:00Z,30.4367,-88.0117,0.5,11.53,2 
DISL,ioos:station:DISL:MBLA:1,2011-02-03T00:13:00Z,30.4367,-88.0117,0.5,11.53,2 
DISL,ioos:station:DISL:MBLA:1,2011-02-03T00:15:00Z,30.4367,-88.0117,0.5,11.49,2 
DISL,ioos:station:DISL:MBLA:1,2011-02-03T14:39:00Z,30.4367,-88.0117,0.5,10.16,2 
DISL,ioos:station:DISL:MBLA:1,2011-02-03T14:42:00Z,30.4367,-88.0117,0.5,10.15,2 
DISL,ioos:station:DISL:MBLA:1,2011-02-03T14:46:00Z,30.4367,-88.0117,0.5,9.82,2 
DISL,ioos:station:DISL:MBLA:1,2011-02-03T16:15:00Z,30.4367,-88.0117,0.5,7.22,2 
DISL,ioos:station:DISL:MBLA:1,2011-02-03T16:17:00Z,30.4367,-88.0117,0.5,7.01,2 
DISL,ioos:station:DISL:MBLA:1,2011-02-03T16:20:00Z,30.4367,-88.0117,0.5,6.54,2 
DISL,ioos:station:DISL:MBLA:1,2011-02-03T16:22:00Z,30.4367,-88.0117,0.5,6.44,2 
DISL,ioos:station:DISL:MBLA:1,2011-02-03T16:25:00Z,30.4367,-88.0117,0.5,6.5,2 
DISL,ioos:station:DISL:MBLA:1,2011-02-03T16:27:00Z,30.4367,-88.0117,0.5,7.08,2 
DISL,ioos:station:DISL:MBLA:1,2011-02-03T17:02:00Z,30.4367,-88.0117,0.5,7.16,2 
DISL,ioos:station:DISL:MBLA:1,2011-02-03T17:05:00Z,30.4367,-88.0117,0.5,6.56,2 
DISL,ioos:station:DISL:MBLA:1,2011-02-03T17:07:00Z,30.4367,-88.0117,0.5,6.41,2 
DISL,ioos:station:DISL:MBLA:1,2011-02-03T17:10:00Z,30.4367,-88.0117,0.5,6.45,2 
DISL,ioos:station:DISL:MBLA:1,2011-02-03T17:12:00Z,30.4367,-88.0117,0.5,6.81,2 
DISL,ioos:station:DISL:MBLA:1,2011-02-03T17:15:00Z,30.4367,-88.0117,0.5,7.22,2 
DISL,ioos:station:DISL:MBLA:1,2011-02-03T18:02:00Z,30.4367,-88.0117,0.5,7.09,2 
DISL,ioos:station:DISL:MBLA:1,2011-02-03T18:05:00Z,30.4367,-88.0117,0.5,6.38,2 
DISL,ioos:station:DISL:MBLA:1,2011-02-03T18:07:00Z,30.4367,-88.0117,0.5,6.45,2 
DISL,ioos:station:DISL:MBLA:1,2011-02-03T18:10:00Z,30.4367,-88.0117,0.5,6.55,2 
DISL,ioos:station:DISL:MBLA:1,2011-02-03T18:12:00Z,30.4367,-88.0117,0.5,6.82,2 
DISL,ioos:station:DISL:MBLA:1,2011-02-03T18:15:00Z,30.4367,-88.0117,0.5,7.87,2 
DISL,ioos:station:DISL:MBLA:1,2011-02-03T19:02:00Z,30.4367,-88.0117,0.5,6.8,2 
DISL,ioos:station:DISL:MBLA:1,2011-02-03T19:05:00Z,30.4367,-88.0117,0.5,6.31,2 
DISL,ioos:station:DISL:MBLA:1,2011-02-03T19:07:00Z,30.4367,-88.0117,0.5,6.27,2 
DISL,ioos:station:DISL:MBLA:1,2011-02-03T19:10:00Z,30.4367,-88.0117,0.5,6.61,2 
DISL,ioos:station:DISL:MBLA:1,2011-02-03T19:12:00Z,30.4367,-88.0117,0.5,8.36,2 
DISL,ioos:station:DISL:MBLA:1,2011-02-03T19:15:00Z,30.4367,-88.0117,0.5,8.49,2 
DISL,ioos:station:DISL:MBLA:1,2011-02-03T20:02:00Z,30.4367,-88.0117,0.5,7.09,2 
DISL,ioos:station:DISL:MBLA:1,2011-02-03T20:05:00Z,30.4367,-88.0117,0.5,7.04,2 
DISL,ioos:station:DISL:MBLA:1,2011-02-03T20:07:00Z,30.4367,-88.0117,0.5,6.27,2 
DISL,ioos:station:DISL:MBLA:1,2011-02-03T20:10:00Z,30.4367,-88.0117,0.5,7.39,2 
DISL,ioos:station:DISL:MBLA:1,2011-02-03T20:13:00Z,30.4367,-88.0117,0.5,7.95,2 
DISL,ioos:station:DISL:MBLA:1,2011-02-03T20:15:00Z,30.4367,-88.0117,0.5,8.25,2 
DISL,ioos:station:DISL:MBLA:1,2011-02-03T21:02:00Z,30.4367,-88.0117,0.5,6.89,2 
DISL,ioos:station:DISL:MBLA:1,2011-02-03T21:05:00Z,30.4367,-88.0117,0.5,6.89,2 
DISL,ioos:station:DISL:MBLA:1,2011-02-03T21:07:00Z,30.4367,-88.0117,0.5,7.06,2 
DISL,ioos:station:DISL:MBLA:1,2011-02-03T21:10:00Z,30.4367,-88.0117,0.5,7.57,2 
DISL,ioos:station:DISL:MBLA:1,2011-02-03T21:12:00Z,30.4367,-88.0117,0.5,7.78,2 
DISL,ioos:station:DISL:MBLA:1,2011-02-03T21:15:00Z,30.4367,-88.0117,0.5,7.73,2 
DISL,ioos:station:DISL:MBLA:1,2011-02-03T22:02:00Z,30.4367,-88.0117,0.5,6.64,2 
DISL,ioos:station:DISL:MBLA:1,2011-02-03T22:05:00Z,30.4367,-88.0117,0.5,6.52,2 
DISL,ioos:station:DISL:MBLA:1,2011-02-03T22:07:00Z,30.4367,-88.0117,0.5,6.72,2 
DISL,ioos:station:DISL:MBLA:1,2011-02-03T22:10:00Z,30.4367,-88.0117,0.5,7.41,2 
DISL,ioos:station:DISL:MBLA:1,2011-02-03T22:12:00Z,30.4367,-88.0117,0.5,7.56,2 
DISL,ioos:station:DISL:MBLA:1,2011-02-03T22:15:00Z,30.4367,-88.0117,0.5,7.58,2 
DISL,ioos:station:DISL:MBLA:1,2011-02-03T23:03:00Z,30.4367,-88.0117,0.5,6.81,2 
DISL,ioos:station:DISL:MBLA:1,2011-02-03T23:05:00Z,30.4367,-88.0117,0.5,6.44,2 
DISL,ioos:station:DISL:MBLA:1,2011-02-03T23:07:00Z,30.4367,-88.0117,0.5,6.55,2 
DISL,ioos:station:DISL:MBLA:1,2011-02-03T23:10:00Z,30.4367,-88.0117,0.5,7.14,2 
DISL,ioos:station:DISL:MBLA:1,2011-02-03T23:12:00Z,30.4367,-88.0117,0.5,7.26,2 
DISL,ioos:station:DISL:MBLA:1,2011-02-03T23:15:00Z,30.4367,-88.0117,0.5,7.26,2 
DISL,ioos:station:DISL:MBLA:1,2011-02-15T00:02:00Z,30.4367,-88.0117,0.5,6.45,2 
DISL,ioos:station:DISL:MBLA:1,2011-02-15T00:05:00Z,30.4367,-88.0117,0.5,6.36,2 
DISL,ioos:station:DISL:MBLA:1,2011-02-15T00:07:00Z,30.4367,-88.0117,0.5,6.33,2 
DISL,ioos:station:DISL:MBLA:1,2011-02-15T00:10:00Z,30.4367,-88.0117,0.5,6.8,2 
DISL,ioos:station:DISL:MBLA:1,2011-02-15T00:12:00Z,30.4367,-88.0117,0.5,7.05,2 
DISL,ioos:station:DISL:MBLA:1,2011-02-15T00:15:00Z,30.4367,-88.0117,0.5,7.1,2 
DISL,ioos:station:DISL:MBLA:1,2011-02-15T01:02:00Z,30.4367,-88.0117,0.5,6.36,2 
DISL,ioos:station:DISL:MBLA:1,2011-02-15T01:05:00Z,30.4367,-88.0117,0.5,6.21,2 
DISL,ioos:station:DISL:MBLA:1,2011-02-15T01:07:00Z,30.4367,-88.0117,0.5,6.58,2 
DISL,ioos:station:DISL:MBLA:1,2011-02-15T01:10:00Z,30.4367,-88.0117,0.5,6.86,2 
DISL,ioos:station:DISL:MBLA:1,2011-02-15T01:12:00Z,30.4367,-88.0117,0.5,7.01,2 
DISL,ioos:station:DISL:MBLA:1,2011-02-15T01:15:00Z,30.4367,-88.0117,0.5,7.09,2 
DISL,ioos:station:DISL:MBLA:1,2011-02-15T02:02:00Z,30.4367,-88.0117,0.5,6.15,2 
DISL,ioos:station:DISL:MBLA:1,2011-02-15T02:05:00Z,30.4367,-88.0117,0.5,6.15,2 
DISL,ioos:station:DISL:MBLA:1,2011-02-15T02:07:00Z,30.4367,-88.0117,0.5,6.08,2 
DISL,ioos:station:DISL:MBLA:1,2011-02-15T02:10:00Z,30.4367,-88.0117,0.5,6.49,2 
DISL,ioos:station:DISL:MBLA:1,2011-02-15T02:12:00Z,30.4367,-88.0117,0.5,6.84,2 
DISL,ioos:station:DISL:MBLA:1,2011-02-15T02:15:00Z,30.4367,-88.0117,0.5,7.09,2 
DISL,ioos:station:DISL:MBLA:1,2011-02-15T03:03:00Z,30.4367,-88.0117,0.5,6.29,2 
DISL,ioos:station:DISL:MBLA:1,2011-02-15T03:05:00Z,30.4367,-88.0117,0.5,5.99,2 
DISL,ioos:station:DISL:MBLA:1,2011-02-15T03:07:00Z,30.4367,-88.0117,0.5,6.06,2 
DISL,ioos:station:DISL:MBLA:1,2011-02-15T03:10:00Z,30.4367,-88.0117,0.5,6.62,2 
DISL,ioos:station:DISL:MBLA:1,2011-02-15T03:12:00Z,30.4367,-88.0117,0.5,7.06,2 
DISL,ioos:station:DISL:MBLA:1,2011-02-15T03:15:00Z,30.4367,-88.0117,0.5,7.12,2 
DISL,ioos:station:DISL:MBLA:1,2011-02-15T04:03:00Z,30.4367,-88.0117,0.5,6.21,2 
DISL,ioos:station:DISL:MBLA:1,2011-02-15T04:05:00Z,30.4367,-88.0117,0.5,5.92,2 
DISL,ioos:station:DISL:MBLA:1,2011-02-15T04:07:00Z,30.4367,-88.0117,0.5,6.23,2 
DISL,ioos:station:DISL:MBLA:1,2011-02-15T04:10:00Z,30.4367,-88.0117,0.5,6.97,2 
DISL,ioos:station:DISL:MBLA:1,2011-02-15T04:12:00Z,30.4367,-88.0117,0.5,7.17,2 
DISL,ioos:station:DISL:MBLA:1,2011-02-15T04:15:00Z,30.4367,-88.0117,0.5,7.18,2 
DISL,ioos:station:DISL:MBLA:1,2011-02-15T05:03:00Z,30.4367,-88.0117,0.5,6.27,2 
DISL,ioos:station:DISL:MBLA:1,2011-02-15T05:05:00Z,30.4367,-88.0117,0.5,6.08,2 
DISL,ioos:station:DISL:MBLA:1,2011-02-15T05:07:00Z,30.4367,-88.0117,0.5,6.28,2 
DISL,ioos:station:DISL:MBLA:1,2011-02-15T05:10:00Z,30.4367,-88.0117,0.5,6.81,2 
DISL,ioos:station:DISL:MBLA:1,2011-02-15T05:12:00Z,30.4367,-88.0117,0.5,7.07,2 
DISL,ioos:station:DISL:MBLA:1,2011-02-15T05:15:00Z,30.4367,-88.0117,0.5,7.05,2 
DISL,ioos:station:DISL:MBLA:1,2011-02-15T06:03:00Z,30.4367,-88.0117,0.5,6.33,2 
DISL,ioos:station:DISL:MBLA:1,2011-02-15T06:05:00Z,30.4367,-88.0117,0.5,6.71,2 
DISL,ioos:station:DISL:MBLA:1,2011-02-15T06:07:00Z,30.4367,-88.0117,0.5,6.58,2 
DISL,ioos:station:DISL:MBLA:1,2011-02-15T06:10:00Z,30.4367,-88.0117,0.5,6.55,2 
DISL,ioos:station:DISL:MBLA:1,2011-02-15T06:12:00Z,30.4367,-88.0117,0.5,7.27,2 
DISL,ioos:station:DISL:MBLA:1,2011-02-15T06:15:00Z,30.4367,-88.0117,0.5,7.2,2 
DISL,ioos:station:DISL:MBLA:1,2011-02-15T07:03:00Z,30.4367,-88.0117,0.5,6.68,2 
DISL,ioos:station:DISL:MBLA:1,2011-02-15T07:05:00Z,30.4367,-88.0117,0.5,6.7,2 
DISL,ioos:station:DISL:MBLA:1,2011-02-15T07:07:00Z,30.4367,-88.0117,0.5,7.23,2 
DISL,ioos:station:DISL:MBLA:1,2011-02-15T07:10:00Z,30.4367,-88.0117,0.5,7.24,2 
DISL,ioos:station:DISL:MBLA:1,2011-02-15T07:12:00Z,30.4367,-88.0117,0.5,7.37,2 
DISL,ioos:station:DISL:MBLA:1,2011-02-15T07:15:00Z,30.4367,-88.0117,0.5,7.36,2 
DISL,ioos:station:DISL:MBLA:1,2011-02-15T08:03:00Z,30.4367,-88.0117,0.5,6.61,2 
DISL,ioos:station:DISL:MBLA:1,2011-02-15T08:05:00Z,30.4367,-88.0117,0.5,6.77,2 
DISL,ioos:station:DISL:MBLA:1,2011-02-15T08:07:00Z,30.4367,-88.0117,0.5,6.95,2 
DISL,ioos:station:DISL:MBLA:1,2011-02-15T08:10:00Z,30.4367,-88.0117,0.5,6.98,2 
DISL,ioos:station:DISL:MBLA:1,2011-02-15T08:12:00Z,30.4367,-88.0117,0.5,7.16,2 
DISL,ioos:station:DISL:MBLA:1,2011-02-15T08:15:00Z,30.4367,-88.0117,0.5,7.16,2 
DISL,ioos:station:DISL:MBLA:1,2011-02-15T09:03:00Z,30.4367,-88.0117,0.5,7.09,2 
DISL,ioos:station:DISL:MBLA:1,2011-02-15T09:05:00Z,30.4367,-88.0117,0.5,6.75,2 
DISL,ioos:station:DISL:MBLA:1,2011-02-15T09:08:00Z,30.4367,-88.0117,0.5,6.71,2 
DISL,ioos:station:DISL:MBLA:1,2011-02-15T09:10:00Z,30.4367,-88.0117,0.5,6.95,2 
DISL,ioos:station:DISL:MBLA:1,2011-02-15T09:12:00Z,30.4367,-88.0117,0.5,7.12,2 
DISL,ioos:station:DISL:MBLA:1,2011-02-15T09:15:00Z,30.4367,-88.0117,0.5,7.16,2 
DISL,ioos:station:DISL:MBLA:1,2011-02-15T10:03:00Z,30.4367,-88.0117,0.5,7.1,2 
DISL,ioos:station:DISL:MBLA:1,2011-02-15T10:05:00Z,30.4367,-88.0117,0.5,6.84,2 
DISL,ioos:station:DISL:MBLA:1,2011-02-15T10:08:00Z,30.4367,-88.0117,0.5,6.83,2 
DISL,ioos:station:DISL:MBLA:1,2011-02-15T10:10:00Z,30.4367,-88.0117,0.5,7.18,2 
DISL,ioos:station:DISL:MBLA:1,2011-02-15T10:13:00Z,30.4367,-88.0117,0.5,7.08,2 
DISL,ioos:station:DISL:MBLA:1,2011-02-15T10:15:00Z,30.4367,-88.0117,0.5,7.04,2 
DISL,ioos:station:DISL:MBLA:1,2011-02-15T11:03:00Z,30.4367,-88.0117,0.5,7.01,2 
DISL,ioos:station:DISL:MBLA:1,2011-02-15T11:05:00Z,30.4367,-88.0117,0.5,6.94,2 
DISL,ioos:station:DISL:MBLA:1,2011-02-15T11:08:00Z,30.4367,-88.0117,0.5,6.81,2 
DISL,ioos:station:DISL:MBLA:1,2011-02-15T11:10:00Z,30.4367,-88.0117,0.5,7.16,2 
DISL,ioos:station:DISL:MBLA:1,2011-02-15T11:13:00Z,30.4367,-88.0117,0.5,7.16,2 
DISL,ioos:station:DISL:MBLA:1,2011-02-15T11:15:00Z,30.4367,-88.0117,0.5,7.35,2 